Location: Northcutt
(34.7304°N, 84.4305°W)
Time: 03:32:05
(UTC+00:00)

Vanguard 2 - Pass Details

Date: 03 October 2022
Orbit: 553 x 2933 km, 32.9° (Epoch: 05 December)

Event Time Altitude Azimuth Distance (km) Brightness Sun altitude
Rises 23:14:13 0° 283° (WNW) 6,107 13.9 0.1°
Reaches altitude 10° 23:17:57 10° 280° (W) 5,316 13.6 -0.6°
Maximum altitude 23:34:22 61° 206° (SSW) 3,198 10.8 -4.0°
Drops below altitude 10° 23:50:52 10° 130° (SE) 5,323 11.4 -7.4°
Sets 23:54:39 0° 127° (SE) 6,115 11.6 -8.2°
